• In Portugal
  • List of Countries
  • For 7 days
  • Water Temperature
  • Satellite Maps
  • Weather Map
  • Weather Widgets
  • user-avatar
    Login

    Hourly Weather Al Hilla

    Today, 13 November, Tuesday

    Time Temperature Precipitation Wind Pressure Humidity
    00:00 +21°C° 0 mm 1 mps 761 mmHg 45%
    01:00 +21°C° 0 mm 1 mps 761 mmHg 46%
    02:00 +21°C° 0 mm 1 mps 761 mmHg 46%
    03:00 +20°C° 0 mm 1 mps 761 mmHg 48%
    04:00 +20°C° 0 mm 1 mps 761 mmHg 49%
    05:00 +20°C° 0 mm 1 mps 761 mmHg 50%
    06:00 +20°C° 0 mm 1 mps 761 mmHg 51%
    07:00 +21°C° 0 mm 1 mps 761 mmHg 48%
    08:00 +22°C° 0 mm 1 mps 761 mmHg 45%
    09:00 +23°C° 0 mm 1 mps 761 mmHg 43%
    10:00 +23°C° 0 mm 1 mps 761 mmHg 40%
    11:00 +24°C° 0 mm 2 mps 761 mmHg 38%
    12:00 +25°C° 0 mm 2 mps 760 mmHg 36%
    13:00 +25°C° 0 mm 2 mps 760 mmHg 35%
    14:00 +26°C° 0 mm 2 mps 759 mmHg 34%
    15:00 +26°C° 0 mm 2 mps 759 mmHg 32%
    16:00 +25°C° 0 mm 2 mps 759 mmHg 34%
    17:00 +25°C° 0 mm 1 mps 759 mmHg 36%
    18:00 +24°C° 0 mm 1 mps 759 mmHg 37%
    19:00 +24°C° 0 mm 1 mps 759 mmHg 38%
    20:00 +23°C° 0 mm 1 mps 759 mmHg 39%
    21:00 +23°C° 0 mm 1 mps 759 mmHg 40%
    22:00 +22°C° 0 mm 1 mps 759 mmHg 41%
    23:00 +22°C° 0 mm 1 mps 758 mmHg 41%

    Tomorrow, 14 November, Wednesday

    Time Temperature Precipitation Wind Pressure Humidity
    00:00 +22°C° 0 mm 1 mps 758 mmHg 42%
    01:00 +21°C° 0 mm 1 mps 758 mmHg 42%
    02:00 +21°C° 0 mm 1 mps 758 mmHg 42%
    03:00 +21°C° 0 mm 1 mps 757 mmHg 42%
    04:00 +21°C° 0 mm 1 mps 757 mmHg 42%
    05:00 +20°C° 0 mm 1 mps 757 mmHg 42%
    06:00 +20°C° 0 mm 1 mps 757 mmHg 43%
    07:00 +20°C° 0 mm 2 mps 757 mmHg 40%
    08:00 +21°C° 0 mm 2 mps 757 mmHg 38%
    09:00 +23°C° 0 mm 2 mps 757 mmHg 35%
    10:00 +24°C° 0 mm 2 mps 757 mmHg 34%
    11:00 +24°C° 0 mm 3 mps 756 mmHg 34%
    12:00 +25°C° 0 mm 3 mps 756 mmHg 33%
    13:00 +25°C° 0 mm 3 mps 756 mmHg 33%
    14:00 +24°C° 0 mm 3 mps 756 mmHg 34%
    15:00 +24°C° 0 mm 3 mps 755 mmHg 34%
    16:00 +24°C° 0.1 mm 3 mps 755 mmHg 36%
    17:00 +23°C° 0.1 mm 2 mps 755 mmHg 39%
    18:00 +23°C° 0.1 mm 2 mps 755 mmHg 41%
    19:00 +21°C° 0.1 mm 3 mps 756 mmHg 44%
    20:00 +21°C° 0.1 mm 3 mps 756 mmHg 47%
    21:00 +20°C° 0.1 mm 3 mps 756 mmHg 50%
    22:00 +20°C° 0 mm 3 mps 756 mmHg 53%
    23:00 +20°C° 0 mm 3 mps 756 mmHg 57%

    Day after tomorrow, 15 November, Thursday

    Time Temperature Precipitation Wind Pressure Humidity
    00:00 +19°C° 0 mm 3 mps 756 mmHg 61%
    01:00 +19°C° 0 mm 3 mps 756 mmHg 63%
    02:00 +19°C° 0 mm 3 mps 756 mmHg 66%
    03:00 +18°C° 0 mm 3 mps 756 mmHg 69%
    04:00 +18°C° 0.1 mm 3 mps 756 mmHg 71%
    05:00 +18°C° 0.1 mm 3 mps 756 mmHg 74%
    06:00 +18°C° 0.1 mm 4 mps 756 mmHg 76%
    07:00 +19°C° 0.4 mm 4 mps 756 mmHg 77%
    08:00 +20°C° 0.4 mm 4 mps 757 mmHg 77%
    09:00 +20°C° 0.4 mm 5 mps 757 mmHg 78%
    10:00 +21°C° 0.4 mm 5 mps 757 mmHg 73%
    11:00 +22°C° 0.4 mm 5 mps 757 mmHg 69%
    12:00 +23°C° 0.4 mm 4 mps 756 mmHg 65%
    13:00 +25°C° 0.3 mm 4 mps 756 mmHg 64%
    14:00 +25°C° 0.3 mm 3 mps 756 mmHg 62%
    15:00 +25°C° 0.3 mm 2 mps 756 mmHg 61%
    16:00 +25°C° 0.4 mm 2 mps 756 mmHg 64%
    17:00 +24°C° 0.4 mm 2 mps 756 mmHg 67%
    18:00 +23°C° 0.4 mm 2 mps 756 mmHg 70%
    19:00 +23°C° 0.2 mm 2 mps 757 mmHg 72%
    20:00 +23°C° 0.2 mm 2 mps 757 mmHg 74%
    21:00 +21°C° 0.2 mm 2 mps 757 mmHg 76%
    22:00 +21°C° 0.4 mm 2 mps 757 mmHg 78%
    23:00 +21°C° 0.4 mm 2 mps 757 mmHg 79%

    16 November, Friday

    Time Temperature Precipitation Wind Pressure Humidity
    00:00 +20°C° 0.4 mm 2 mps 757 mmHg 81%
    01:00 +20°C° 0.3 mm 2 mps 757 mmHg 82%
    02:00 +21°C° 0.3 mm 1 mps 757 mmHg 83%
    03:00 +21°C° 0.3 mm 1 mps 758 mmHg 85%
    04:00 +20°C° 0.1 mm 1 mps 758 mmHg 85%
    05:00 +19°C° 0.1 mm 2 mps 758 mmHg 85%
    06:00 +19°C° 0.1 mm 2 mps 758 mmHg 85%
    07:00 +20°C° 0.2 mm 2 mps 759 mmHg 81%
    08:00 +21°C° 0.2 mm 2 mps 759 mmHg 77%
    09:00 +21°C° 0.2 mm 2 mps 760 mmHg 73%
    10:00 +23°C° 0.1 mm 2 mps 760 mmHg 67%
    11:00 +24°C° 0.1 mm 2 mps 760 mmHg 60%
    12:00 +25°C° 0.1 mm 2 mps 760 mmHg 53%
    13:00 +26°C° 0 mm 2 mps 759 mmHg 50%
    14:00 +26°C° 0 mm 1 mps 759 mmHg 47%
    15:00 +26°C° 0 mm 1 mps 759 mmHg 44%
    16:00 +26°C° 0 mm 1 mps 760 mmHg 46%
    17:00 +25°C° 0 mm 1 mps 760 mmHg 48%
    18:00 +25°C° 0 mm 2 mps 760 mmHg 50%
    19:00 +25°C° 0 mm 2 mps 761 mmHg 51%
    20:00 +24°C° 0 mm 2 mps 761 mmHg 53%
    21:00 +24°C° 0 mm 2 mps 761 mmHg 55%
    22:00 +23°C° 0 mm 2 mps 761 mmHg 56%
    23:00 +23°C° 0 mm 2 mps 762 mmHg 58%

    17 November, Saturday

    Time Temperature Precipitation Wind Pressure Humidity
    00:00 +22°C° 0 mm 1 mps 762 mmHg 60%
    01:00 +22°C° 0 mm 1 mps 762 mmHg 61%
    02:00 +22°C° 0 mm 1 mps 762 mmHg 62%
    03:00 +21°C° 0 mm 1 mps 762 mmHg 64%
    04:00 +21°C° 0 mm 1 mps 762 mmHg 65%
    05:00 +21°C° 0 mm 1 mps 762 mmHg 67%
    06:00 +21°C° 0 mm 1 mps 762 mmHg 68%
    07:00 +22°C° 0 mm 1 mps 762 mmHg 65%
    08:00 +20°C° 0 mm 0 mps 762 mmHg 61%
    09:00 +21°C° 0 mm 0 mps 763 mmHg 58%
    10:00 +22°C° 0 mm 0 mps 762 mmHg 52%
    11:00 +25°C° 0 mm 1 mps 762 mmHg 47%
    12:00 +26°C° 0 mm 1 mps 762 mmHg 41%
    13:00 +26°C° 0 mm 2 mps 762 mmHg 38%
    14:00 +27°C° 0 mm 2 mps 761 mmHg 36%
    15:00 +27°C° 0 mm 3 mps 761 mmHg 33%
    16:00 +26°C° 0 mm 2 mps 761 mmHg 35%
    17:00 +26°C° 0 mm 2 mps 761 mmHg 37%
    18:00 +25°C° 0 mm 2 mps 761 mmHg 39%
    19:00 +24°C° 0 mm 2 mps 761 mmHg 41%
    20:00 +24°C° 0 mm 1 mps 761 mmHg 42%
    21:00 +23°C° 0 mm 1 mps 761 mmHg 44%
    22:00 +23°C° 0 mm 1 mps 761 mmHg 45%
    23:00 +22°C° 0 mm 1 mps 761 mmHg 46%

    18 November, Sunday

    Time Temperature Precipitation Wind Pressure Humidity
    00:00 +22°C° 0 mm 1 mps 761 mmHg 47%
    01:00 +22°C° 0 mm 1 mps 761 mmHg 48%
    02:00 +21°C° 0 mm 1 mps 760 mmHg 48%
    03:00 +21°C° 0 mm 1 mps 760 mmHg 49%
    04:00 +21°C° 0 mm 1 mps 760 mmHg 50%
    05:00 +21°C° 0 mm 1 mps 760 mmHg 51%
    06:00 +20°C° 0 mm 1 mps 760 mmHg 51%
    07:00 +21°C° 0 mm 1 mps 761 mmHg 48%
    08:00 +22°C° 0 mm 1 mps 761 mmHg 45%
    09:00 +23°C° 0 mm 1 mps 761 mmHg 41%
    10:00 +24°C° 0 mm 1 mps 761 mmHg 38%
    11:00 +25°C° 0 mm 2 mps 760 mmHg 35%
    12:00 +26°C° 0 mm 2 mps 760 mmHg 31%
    13:00 +27°C° 0 mm 2 mps 760 mmHg 30%
    14:00 +27°C° 0 mm 2 mps 759 mmHg 29%
    15:00 +27°C° 0 mm 2 mps 759 mmHg 27%
    16:00 +26°C° 0 mm 2 mps 759 mmHg 30%
    17:00 +26°C° 0 mm 1 mps 759 mmHg 32%
    18:00 +25°C° 0 mm 1 mps 759 mmHg 35%
    19:00 +24°C° 0 mm 1 mps 759 mmHg 35%
    20:00 +24°C° 0 mm 1 mps 759 mmHg 36%
    21:00 +24°C° 0 mm 1 mps 759 mmHg 37%
    22:00 +23°C° 0 mm 2 mps 759 mmHg 37%
    23:00 +23°C° 0 mm 2 mps 759 mmHg 37%
    Show more